Location: Unspecified
(47.1121°N, 116.3927°W)
Time: 05:16:01
(UTC-08:00)

Resurs 1-4 Rocket - Pass Details

Date: 19 October 2019
Orbit: 800 x 813 km, 98.6° (Epoch: 18 November)

Event Time Altitude Azimuth Distance (km) Brightness Sun altitude
Rises 03:15:13 0° 9° (N) 3,348 5.8 -39.1°
Reaches altitude 10° 03:17:39 10° 3° (N) 2,412 4.9 -38.8°
Enters shadow 03:18:01 12° 2° (N) 2,278 4.7 -38.8°
